STAR ONE C2

Last updated on Sat Aug 15 2026 00:02:57 GMT+0000 (Coordinated Universal Time)

1 32768U 08018B 26226.48381572 -.00000292 00000+0 00000+0 0 9991 2 32768 1.3843 81.8517 0002747 72.2256 277.9945 1.00271832 67236
UTC large
Height (km)
Speed (km/s)
/
Latitude / Longitude
Inclination (degrees)
Orbital Period (minutes)
Azimuth
Elevation
Range (km)
Doppler Factor

Next 0 passes for location: London (51.5072 / 0.1276)

No passes found over London.
STAR ONE C2